User: anonymous   Login
Location: Unspecified
(0.0000°N, 0.0000°E)
Time: 07:21:36
(UTC+00:00)
Language:

FALCON 9 R/B - Orbit

View from above orbital plane
View from above orbital plane
View from above satellite
View from above satellite

Ground track
Ground track

The orbit data is extracted from the following two-line orbital elements,

1 37253U 10066K   16126.54142055  .00003035  00000-0  30951-3 0  9997
2 37253  34.4975 237.5688 4293040  41.2916 344.3232  6.86795173132513
Epoch (UTC): 05 May 2016 12:59:38
Eccentricity: 0.4293040
inclination: 34.4975°
perigee height: 294 km
apogee height: 10332 km
right ascension of ascending node: 237.5688°
argument of perigee: 41.2916°
revolutions per day: 6.86795173
mean anomaly at epoch: 344.3232°
orbit number at epoch: 13251

The dashed part of the orbit path shows where the satellite is in the earth's shadow,  

DLR